Regional Weather Roundup
Issued by NWS Cleveland, OH

Home | Current Version | Previous Version | Text Only | Print | Product List | Glossary Off
Versions: 1 2 3 4 5 6 7 8 9 10 11 12 13 14 15 16 17 18 19 20 21 22 23 24 25 26 27 28 29 30 31 32 33 34 35 36 37 38 39 40 41 42 43 44 45 46 47 48 49 50

000
ASUS41 KCLE 261710
RWRCLE
OHIO REGIONAL WEATHER ROUNDUP
NATIONAL WEATHER SERVICE CLEVELAND, OH
100 PM EDT TUE SEP 26 2017

NOTE: "FAIR" INDICATES FEW OR NO CLOUDS BELOW 12,000 FEET WITH NO
SIGNIFICANT WEATHER AND/OR OBSTRUCTIONS TO VISIBILITY.

OHZ001>008-015>018-024>027-034-035-043-044-261800-
   NORTHWEST OHIO

CITY           SKY/WX    TMP DP  RH WIND       PRES   REMARKS
DEFIANCE       SUNNY     86  63  45 VRB7      30.00F
FINDLAY        SUNNY     88  62  41 W5        30.01F
TOLEDO EXPRESS SUNNY     88  67  49 W7        30.00F HX  91
TOLEDO EXEC    SUNNY     88  62  41 W8        30.01F
LIMA           SUNNY     85  62  46 W7        30.03F
$$

OHZ009>014-019>023-028>033-038-089-261800-
   NORTHEAST OHIO

CITY           SKY/WX    TMP DP  RH WIND       PRES   REMARKS
CLE-HOPKINS    SUNNY     90  59  35 S5        30.03F
CLE-LAKEFRONT  SUNNY     81  65  58 NW6       30.01S
CUY CO. ARPT   MOSUNNY   88  63  42 NW12      30.03S
LORAIN-ELYRIA  SUNNY     86  59  39 CALM      30.02F
ASHTABULA      SUNNY     86  62  44 VRB5      30.04S
AKRON-CANTON   MOSUNNY   87  59  38 VRB3      30.04F
WOOSTER        SUNNY     86  61  42 CALM      30.05F
MANSFIELD      SUNNY     86  61  42 SW7       30.05F
YOUNGSTOWN     MOSUNNY   87  65  47 VRB6      30.04F
$$

OHZ042-051>053-060>062-070>072-077>081-261800-
  SOUTHWEST OHIO

CITY           SKY/WX    TMP DP  RH WIND       PRES   REMARKS
CINC-COVINGTON MOSUNNY   85  64  49 CALM      30.04F
CINC-LUNKEN    MOSUNNY   85  66  53 SW5       30.02F
HAMILTON       SUNNY     87  65  47 NW6       30.03F
DAYTON         MOSUNNY   85  62  46 W7        30.04F
WRIGHT-PAT AFB SUNNY     85  62  45 CALM      30.03F
DAYTON GENERAL SUNNY     84  61  45 CALM      30.03F
WILMINGTON     SUNNY     86  65  49 CALM      30.04F
$$

OHZ036-037-039>041-045>050-054>059-063>069-073>076-082>088-261800-
  CENTRAL AND SOUTHEAST OHIO

CITY           SKY/WX    TMP DP  RH WIND       PRES   REMARKS
COLUMBUS       MOSUNNY   87  62  43 CALM      30.02F
OSU AIRPORT    SUNNY     86  64  47 CALM      30.03F
BOLTON FIELD   SUNNY     86  64  48 CALM      30.04F
RICKENBACK AFB SUNNY     85  62  46 CALM      30.02F
NEWARK         SUNNY     87  60  40 W5        30.03F
MARION         SUNNY     87  59  38 W9        30.04F
LANCASTER      MOSUNNY   86  64  47 VRB7      30.04S
ZANESVILLE     SUNNY     86  62  44 VRB3      30.04S
NEW PHILLY     NOT AVBL
$$



USA.gov is the U.S. government's official web portal to all federal, state and local government web resources and services.